Tracking 18823 objects as of 20-October-2017
HD Live streaming from Space Station
objects crossing your sky now

SL-12 R/B(AUX MOTOR)

Track SL-12 R/B(AUX MOTOR) now!


NORAD ID: 25053
Int'l Code: 1997-070E
Perigee: 1,272.7 km
Apogee: 32,889.8 km
Inclination: 46.0 °
Period: 595.7 minutes
Semi major axis: 23452 km
RCS: 0.8237 m2 (medium)
Launch date: November 12, 1997
Source: Commonwealth of Independent States (former USSR) (CIS)
Launch site: TYURATAM MISSILE AND SPACE COMPLEX (TTMTR)

Note: This is a ROCKET BODY
aabbcc
Your satellite tracking list
Your tracking list is empty





NASA's NSSDC Master Catalog

Two Line Element Set (TLE):
1 25053U 97070E   17292.20106526 +.00000015 +00000-0 +79274-2 0  9998
2 25053 046.0209 108.3333 6740744 192.5671 133.9717 02.41728064175426
Source of the keplerian elements: AFSPC